Weather in Arga

Russia / Amur Oblast     51°16′13″N   128°14′29″E
temp.,
°C
wind,
m/s
gust,
m/s
humid.,
%
clouds,
%
prec.,
mm/h
press.,
hPa
HPBL,
m
25 february, thu
thu2500:00−28ne019521 0.0 102819
03:00−29nnw119910 0.0 102819
06:00−28nne1210048 0.0 102819
09:00−26n119474 0.0 102965
12:00−21nnw2386100 0.0 1029360
15:00−17nnw2474100 0.0 1027761
18:00−19wnw2286100 0.0 102820
21:00−21nw2390100 0.0 102920
26 february, fri
fri2600:00−23wnw229179 0.0 103020
03:00−24nw229366 0.0 103120
06:00−26nw229531 0.0 103219
09:00−23nw129432 0.0 103476
12:00−16nnw248263 0.0 1035547
15:00−14n237381 0.0 1034767
18:00−19se2391100 0.0 103420
21:00−22s239675 0.0 103520
27 february, sat
sat2700:00−21s239676 0.0 103528
03:00−21sse239588 0.0 103359
06:00−19se4890100 0.0 1030280
09:00−18se5991100 0.2 1026361
12:00−14se61188100 0.4 1020510
15:00−10sse71382100 0.9 1013775
18:00−9sse71494100 1.6 1010716
21:00−7s5996100 3.3 1010375
28 february, sun
sun2800:00−10wnw51386100 0.3 1012411
03:00−17wnw6138350 0.3 1017396
06:00−21w34870 0.0 102160
09:00−18wnw513800 0.0 1024640
12:00−15wnw711740 0.0 1025898
15:00−14wnw7117016 0.0 10261259
18:00−17wnw51276100 0.0 1027313
21:00−20wnw5118188 0.0 1030226
1 march, mon
mon100:00−22wnw511820 0.0 1032214
03:00−24wnw49800 0.0 1033162
06:00−26wnw511790 0.0 1034195
09:00−23wnw511750 0.0 1035415
12:00−18wnw69670 0.0 10331075
15:00−17wnw696617 0.0 10331471
18:00−21wnw4576100 0.0 103276
21:00−24wnw237750 0.0 103420